This is the latest recevied weather packets stored in our database for station/object JR4VEV-13. If no packets are shown the sender has not sent any weather packets the latest 10 day(s).
| Time | Temp. | Humidity | Pressure | Rain* | Wind** | Luminosity | Snow |
|---|---|---|---|---|---|---|---|
| 1777725178 | 15.56° C | 84% | 1013 hPa | 0 mm | - | - | - |
| 1777724579 | 15.56° C | 84% | 1013 hPa | 0 mm | - | - | - |
| 1777723979 | 15.56° C | 84% | 1012.8 hPa | 0 mm | - | - | - |
| 1777723379 | 16.11° C | 83% | 1012.7 hPa | 0 mm | - | - | - |
| 1777722778 | 16.11° C | 83% | 1012.7 hPa | 0 mm | - | - | - |
| 1777722178 | 16.11° C | 81% | 1012.6 hPa | 0 mm | - | - | - |
| 1777721579 | 16.67° C | 83% | 1012.5 hPa | 0 mm | - | - | - |
| 1777720979 | 16.67° C | 79% | 1012.3 hPa | 0 mm | - | - | - |
| 1777720378 | 16.67° C | 78% | 1012.4 hPa | 0 mm | - | - | - |
| 1777719779 | 17.22° C | 77% | 1012.3 hPa | 0 mm | - | - | - |
| 1777719179 | 17.22° C | 76% | 1012 hPa | 0 mm | - | - | - |
| 1777718578 | 17.78° C | 77% | 1011.9 hPa | 0 mm | - | - | - |
| 1777717979 | 17.78° C | 78% | 1012 hPa | 0 mm | - | - | - |
| 1777717379 | 18.33° C | 74% | 1011.9 hPa | 0 mm | - | - | - |
| 1777716779 | 18.89° C | 75% | 1011.8 hPa | 0 mm | - | - | - |
| 1777716179 | 19.44° C | 74% | 1011.5 hPa | 0 mm | - | - | - |
| 1777715578 | 20° C | 72% | 1011.5 hPa | 0 mm | - | - | - |
| 1777714979 | 20.56° C | 70% | 1011.3 hPa | 0 mm | - | - | - |
| 1777714378 | 21.11° C | 69% | 1011.2 hPa | 0 mm | - | - | - |
| 1777713779 | 21.67° C | 68% | 1011.1 hPa | 0 mm | - | - | - |
| 1777713179 | 21.67° C | 67% | 1011.1 hPa | 0 mm | - | - | - |
| 1777712579 | 22.22° C | 64% | 1011.1 hPa | 0 mm | - | - | - |
| 1777711978 | 22.78° C | 60% | 1010.9 hPa | 0 mm | - | - | - |
| 1777711379 | 23.33° C | 59% | 1011 hPa | 0 mm | - | - | - |
| 1777710778 | 23.33° C | 58% | 1010.9 hPa | 0 mm | - | - | - |
* Rain latest hour (hover to see other rain measurements)
** Current wind speed in m/s (hover to see current wind gust speed)